Flag for Tunisia Weather past 2 weeks in Tunis, Tunisia

Now
73 °F

Scattered clouds.


Feels Like: 77 °F
Forecast: 56 / 77 °F
Wind: 22 mph from Northwest

Location: Tunis-Carthage


UV Index: 7 (High)

Visibility: N/A


Pressure: 30.01 "Hg

Humidity: 50%

Dew point: 54 °F

Location of TunisLocation

Historic Weather in Tunis

°F

Tunis temperature yesterday

Maximum temperature yesterday: 72 °F (at 12:30 PM)
Minimum temperature yesterday: 59 °F (at 5:30 AM)
Average temperature yesterday: 65 °F

Past Weeks' High & Low Weather Summary

 TemperatureHumidityPressure
High86 °F (Apr 19, 3:30 PM)100% (Apr 12, 3:00 AM)30.18 "Hg (Apr 12, 3:00 AM)
Low46 °F (Apr 11, 5:00 AM)14% (Apr 19, 4:00 PM)29.62 "Hg (Apr 20, 1:00 PM)
Average64 °F64%29.95 "Hg
* Reported Apr 8 12:00 Noon — Apr 23 12:30 PM, Tunis, Weather by CustomWeather, © 2014

Note: Actual official high and low records may vary slightly from our data, if they occured in-between our weather recording intervals... More about our weather records

Advertising

Historic Weather Conditions — Data for Previous 24 hours

 ConditionsComfort  
Time TempWeatherWind HumidityBarometerVisibility
12:30 PM
Apr 23
73 °FScattered clouds.23 mph50%30.01 "HgN/A
12:00 PM73 °FScattered clouds.23 mph50%30.01 "HgN/A
11:01 AM72 °FScattered clouds.20 mph57%30.01 "HgN/A
10:30 AM72 °FScattered clouds.23 mph57%30.01 "HgN/A
10:00 AM70 °FScattered clouds.18 mph60%30.01 "HgN/A
9:30 AM70 °FScattered clouds.20 mph64%30.01 "HgN/A
9:00 AM68 °FBroken clouds.18 mph64%30.01 "HgN/A
8:30 AM66 °FBroken clouds.18 mph73%30.01 "HgN/A
8:00 AM66 °FPartly sunny.16 mph73%29.98 "HgN/A
7:30 AM64 °FScattered clouds.12 mph78%29.98 "HgN/A
7:00 AM63 °FScattered clouds.10 mph83%29.98 "HgN/A
6:30 AM61 °FScattered clouds.10 mph88%29.98 "HgN/A
6:00 AM61 °FScattered clouds.16 mph83%29.95 "HgN/A
5:30 AM61 °FPassing clouds.12 mph83%29.95 "HgN/A
5:00 AM61 °FPassing clouds.12 mph83%29.95 "HgN/A
4:00 AM61 °FPassing clouds.10 mph88%29.95 "HgN/A
3:30 AM61 °FPassing clouds.9 mph88%29.95 "HgN/A
2:30 AM61 °FPassing clouds.10 mph88%29.95 "Hg5 mi
2:00 AM61 °FPassing clouds.12 mph88%29.95 "Hg5 mi
1:30 AM61 °FPassing clouds.13 mph88%29.95 "Hg5 mi
1:00 AM61 °FPassing clouds.10 mph88%29.95 "Hg5 mi
12:30 AM61 °FPassing clouds.9 mph88%29.95 "Hg5 mi
12:00 AM63 °FPassing clouds.8 mph83%29.95 "Hg5 mi
11:30 PM
Apr 22
63 °FPassing clouds.7 mph83%29.95 "Hg5 mi
11:00 PM63 °FPartly cloudy.6 mph83%29.95 "Hg5 mi
10:30 PM63 °FPartly cloudy.7 mph88%29.95 "Hg5 mi
10:00 PM63 °FRain. Partly cloudy.2 mph88%29.95 "Hg5 mi
9:30 PM63 °FLight rain. Passing clouds.10 mph88%29.92 "Hg5 mi
9:00 PM64 °FPassing clouds.10 mph78%29.92 "Hg5 mi
8:30 PM64 °FPassing clouds.9 mph78%29.89 "Hg5 mi
8:00 PM64 °FPassing clouds.7 mph78%29.89 "HgN/A
7:30 PM64 °FPassing clouds.8 mph78%29.89 "HgN/A
7:00 PM64 °FPassing clouds.5 mph83%29.86 "HgN/A
6:30 PM64 °FBroken clouds.6 mph83%29.83 "HgN/A
6:00 PM64 °FBroken clouds.5 mph78%29.83 "HgN/A
5:30 PM66 °FBroken clouds.5 mph73%29.83 "HgN/A
5:00 PM66 °FBroken clouds.6 mph73%29.83 "HgN/A
4:30 PM66 °FBroken clouds.5 mph73%29.83 "HgN/A
4:00 PM66 °FBroken clouds.5 mph68%29.83 "HgN/A
3:30 PM66 °FPartly sunny.5 mph68%29.83 "HgN/A
3:00 PM66 °FPartly sunny.6 mph73%29.83 "HgN/A
2:30 PM68 °FPartly sunny.8 mph64%29.80 "HgN/A
2:00 PM68 °FPartly sunny.9 mph60%29.80 "HgN/A
1:00 PM70 °FPartly sunny.10 mph57%29.80 "HgN/A
Weather by CustomWeather, © 2014

See weather overview